Regional Weather Roundup
Issued by NWS

Home | Current Version | Previous Version | Text Only | Print | Product List | Glossary On
Versions: 1 2 3 4 5 6 7 8 9 10 11 12 13 14 15 16 17 18 19 20 21 22 23 24 25 26 27 28 29 30 31 32 33 34 35 36 37 38 39 40 41 42 43 44 45 46 47 48 49 50
000
ASUS43 KBIS 312220
RWRND

NORTH DAKOTA REGIONAL WEATHER ROUNDUP
NATIONAL WEATHER SERVICE BISMARCK ND
500 PM CDT FRI OCT 31 2014

NOTE: "FAIR" INDICATES FEW OR NO CLOUDS BELOW 12,000 FEET WITH NO
SIGNIFICANT WEATHER AND/OR OBSTRUCTIONS TO VISIBILITY.


NDZ001>003-009>011-017-312300-
NORTHWEST NORTH DAKOTA

CITY           SKY/WX    TMP DP  RH WIND       PRES   REMARKS
WILLISTON      SUNNY     47  25  42 SE18G25   29.99F
MINOT          MOSUNNY   40  13  33 SE22G30   30.16F
MINOT AFB      MOSUNNY   40  15  35 S24G32    30.14F
$$

NDZ018>021-031>035-040>046-312300-
SOUTHWEST NORTH DAKOTA

CITY           SKY/WX    TMP DP  RH WIND       PRES   REMARKS
BISMARCK       SUNNY     40  10  29 SE21G32   30.24F
DICKINSON      SUNNY     44  17  33 SE24G38   30.02F
GARRISON         N/A     40  18  41 SE20G28   30.16F
HETTINGER ARPT SUNNY     43  16  33 SE21G37   30.07F
$$

NDZ004>008-012>016-024-026-027-054-312300-
NORTHEAST NORTH DAKOTA

CITY           SKY/WX    TMP DP  RH WIND       PRES   REMARKS
GRAND FORKS    CLEAR     38  20  48 S12       30.43F
GRND FRKS AFB  CLEAR     38  19  45 S13       30.42F
DEVILS LAKE    MOSUNNY   37  14  38 S18G26    30.31F
$$

NDZ022-023-025-028>030-036>039-047>053-312300-
SOUTHEAST NORTH DAKOTA

CITY           SKY/WX    TMP DP  RH WIND       PRES   REMARKS
FARGO          SUNNY     40  18  41 SE12      30.45F
JAMESTOWN      MOSUNNY   38  15  39 S18       30.35F
$$




USA.gov is the U.S. government's official web portal to all federal, state and local government web resources and services.